This demonstration page uses our WeatherBlox Daily Observations layout. Learn more.

Left ArrowRight Arrow

34.74481, -87.66753

Hourly Observations for August 23, 2015

Temp ( °F °C ) Dew Point ( °F °C ) Humidity (%) Winds ( mph kmh ) Pressure ( in mb ) Visibility ( mi km ) Precip ( " mm )
12:53 am 00:53 Mostly Clear with Mist and Fog 72 22.2 70 21.1 94 94 Calm 29.99 1016 6 10 0.00 0.00
1:53 am 01:53 Clear 73 22.8 70 21.1 90 90 Calm 29.96 1015 7 11 0.00 0.00
2:38 am 02:38 Partly Cloudy with Nearby Thunderstorms 73 22.8 70 21.1 90 90 E 3 6 29.97 1015 9 14 0.00 0.00
2:53 am 02:53 Mostly Cloudy with Nearby Thunderstorms 73 22.8 70 21.1 90 90 Calm 29.96 1015 8 13 0.00 0.03
3:03 am 03:03 Mostly Cloudy with Thunderstorms 73 22.8 71 21.7 94 94 WSW 7 11 29.97 1015 7 11 0.01 0.25
3:08 am 03:08 Mostly Cloudy with Thunderstorms 73 22.8 71 21.7 94 94 W 9 15 29.97 1015 5 8 0.03 0.76
3:15 am 03:15 Cloudy with Strong Thunderstorms 73 22.8 71 21.7 94 94 SSW 9 15 29.97 1015 2 3 0.17 4.32
3:36 am 03:36 Cloudy with Strong Thunderstorms 73 22.8 70 21.1 90 90 S 7 11 29.97 1015 3 4 0.43 10.92
3:46 am 03:46 Cloudy with Nearby Thunderstorms 72 22.2 69 20.6 91 91 S 5 7 30.00 1016 4 6 0.45 11.43
3:53 am 03:53 Cloudy with Nearby Thunderstorms 72 22.2 69 20.6 91 91 SSW 5 7 30.00 1016 4 6 0.47 11.94
4:14 am 04:14 Cloudy with Rain 71 21.7 69 20.6 94 94 SW 3 6 29.97 1015 3 5 0.07 1.78
4:51 am 04:51 Cloudy with Nearby Thunderstorms 72 22 68 20 88 88 S 6 9 29.97 1015 4 6 0.21 5.33
4:53 am 04:53 Cloudy with Nearby Thunderstorms 71 21.7 68 20 90 90 S 5 7 30.00 1016 4 6 0.21 5.33
5:06 am 05:06 Cloudy with Rain 70 21.1 68 20 93 93 SW 7 11 30.00 1016 4 6 0.06 1.52
5:53 am 05:53 Partly Cloudy with Light Rain 70 21.1 68 20 93 93 SE 3 6 29.99 1016 9 14 0.10 2.54
6:31 am 06:31 Partly Cloudy 70 21.1 68 20 93 93 Calm 30.00 1016 8 13 0.00 0.03
6:53 am 06:53 Mostly Sunny 70 21.1 68 20 93 93 Calm 30.01 1016 7 11 0.00 0.03
7:53 am 07:53 Mostly Cloudy 72 22.2 69 20.6 91 91 Calm 30.03 1017 8 13 0.00 0.00
8:31 am 08:31 Mostly Cloudy 73 22.8 70 21.1 90 90 WNW 8 13 30.03 1017 10 16 0.00 0.00
8:43 am 08:43 Cloudy with Light Rain 73 22.8 70 21.1 90 90 W 7 11 30.03 1017 3 4 0.05 1.27
8:46 am 08:46 Cloudy with Heavy Rain 73 22.8 70 21.1 90 90 W 7 11 30.03 1017 2 2 0.07 1.78
8:53 am 08:53 Cloudy with Light Rain 73 22.8 70 21.1 90 90 W 5 7 30.03 1017 3 4 0.07 1.78
9:00 am 09:00 Cloudy 73 22.8 70 21.1 90 90 Calm 30.03 1017 10 16 0.00 0.03
9:25 am 09:25 Mostly Cloudy 75 23.9 70 21.1 84 84 WNW 7 11 30.03 1017 10 16 0.00 0.03
9:32 am 09:32 Cloudy 76 24.4 71 21.7 85 85 W 8 13 30.03 1017 10 16 0.00 0.03
9:46 am 09:46 Cloudy 76 24.4 71 21.7 85 85 W 9 15 30.03 1017 10 16 0.00 0.03
9:53 am 09:53 Mostly Cloudy 76 24.4 71 21.7 85 85 WSW 8 13 30.03 1017 10 16 0.00 0.03
10:42 am 10:42 Mostly Cloudy 79 26.1 72 22.2 79 79 W 9 15 30.03 1017 10 16 0.00 0.00
10:53 am 10:53 Mostly Cloudy 80 26.7 73 22.8 79 79 W 8 13 30.03 1017 10 16 0.00 0.00
11:00 am 11:00 Partly Cloudy 80 26.7 72 22.2 76 76 W 6 9 30.03 1017 10 16 0.00 0.00
11:53 am 11:53 Partly Cloudy 82 27.8 73 22.8 74 74 VRB 5 7 30.02 1017 10 16 0.00 0.00
12:42 pm 12:42 Mostly Cloudy 83 28.3 72 22.2 70 70 VRB 7 11 30.00 1016 10 16 0.00 0.00
12:53 pm 12:53 Mostly Cloudy 84 28.9 73 22.8 70 70 WSW 5 7 30.00 1016 10 16 0.00 0.00
1:07 pm 13:07 Partly Cloudy 86 30 73 22.8 65 65 VRB 5 7 29.97 1015 10 16 0.00 0.00
1:18 pm 13:18 Mostly Cloudy 83 28.3 73 22.8 72 72 W 6 9 29.97 1015 10 16 0.00 0.00
1:42 pm 13:42 Partly Cloudy 84 28.9 73 22.8 70 70 VRB 5 7 29.97 1015 10 16 0.00 0.00
1:53 pm 13:53 Mostly Sunny 87 30.6 73 22.8 63 63 NW 8 13 29.97 1015 10 16 0.00 0.00
2:53 pm 14:53 Partly Cloudy 87 30.6 73 22.8 63 63 W 9 15 29.95 1014 10 16 0.00 0.00
3:53 pm 15:53 Mostly Sunny 87 30.6 75 23.9 67 67 W 8 13 29.94 1014 10 16 0.00 0.00
4:53 pm 16:53 Sunny 86 30 73 22.8 65 65 NW 8 13 29.93 1014 10 16 0.00 0.00
5:53 pm 17:53 Mostly Sunny 85 29.4 73 22.8 68 68 W 9 15 29.93 1014 10 16 0.00 0.00
6:53 pm 18:53 Sunny 83 28.3 73 22.8 72 72 NW 3 6 29.94 1014 10 16 0.00 0.00
9:53 pm 21:53 Mostly Cloudy 77 25 74 23.3 90 90 Calm 29.97 1015 7 11 0.00 0.00
10:53 pm 22:53 Clear 76 24.4 73 22.8 91 91 WNW 3 6 29.98 1015 7 11 0.00 0.00
11:42 pm 23:42 Mostly Cloudy 78 25.6 74 23.3 87 87 Calm 29.97 1015 8 13 0.00 0.00
11:53 pm 23:53 Mostly Cloudy 78 25.6 74 23.3 87 87 Calm 29.98 1015 7 11 0.00 0.00

Powered by AerisWeather